Home   Weather   USA   Time   Past weeks
Flag for USA

Past Weather in Time, Illinois, USA — Yesterday and Last 2 Weeks

Currently: 31 °F. Overcast. (Weather station: Pittsfield Penstone Municipal Airport, USA). See more current weather

Past Weather in Time — Graph

°F

Time Temperature Yesterday

Maximum temperature yesterday: 54 °F (at 12:15 am)
Minimum temperature yesterday: 36 °F (at 11:55 pm)
Average temperature yesterday: 45 °F

High & Low Weather Summary for the Past Weeks

 TemperatureHumidityPressure
High66 °F (Dec 7, 1:55 pm)100% (Nov 26, 7:15 am)30.42 "Hg (Nov 26, 7:15 am)
Low15 °F (Nov 28, 7:35 am)37% (Nov 29, 2:35 pm)29.63 "Hg (Dec 8, 11:15 pm)
Average39 °F74%30.01 "Hg
* Reported Nov 25 9:15 am — Dec 10 9:15 am, Time. Weather by CustomWeather, © 2023

Note: Actual official high and low records may vary slightly from our data, if they occured in-between our weather recording intervals... More about our weather records

Time Weather History for the Previous 24 Hours

Scroll right to see more
 ConditionsComfort  
Time TempWeatherWind HumidityBarometerVisibility
9:15 am
Sun, Dec 10
31 °FOvercast.9 mph78%30.14 "Hg10 mi
8:55 am31 °FOvercast.10 mph78%30.13 "Hg10 mi
8:35 am32 °FOvercast.9 mph78%30.14 "Hg10 mi
8:15 am32 °FOvercast.10 mph77%30.13 "Hg10 mi
7:55 am32 °FOvercast.9 mph76%30.13 "Hg10 mi
7:15 am32 °FOvercast.8 mph77%30.13 "Hg10 mi
6:55 am33 °FOvercast.9 mph76%30.13 "Hg10 mi
6:15 am33 °FOvercast.10 mph76%30.13 "Hg10 mi
5:55 am34 °FOvercast.13 mph74%30.12 "Hg10 mi
5:15 am35 °FOvercast.12 mph74%30.11 "Hg10 mi
4:55 am35 °FOvercast.6 mph73%30.10 "Hg10 mi
4:15 am35 °FOvercast.9 mph72%30.09 "Hg10 mi
3:55 am36 °FOvercast.8 mph72%30.09 "Hg10 mi
2:55 am36 °FOvercast.6 mph75%30.07 "Hg10 mi
2:15 am36 °FOvercast.7 mph75%30.07 "Hg10 mi
1:55 am36 °FOvercast.6 mph73%30.08 "Hg10 mi
1:15 am36 °FOvercast.7 mph72%30.08 "Hg10 mi
12:55 am36 °FOvercast.9 mph72%30.08 "Hg10 mi
12:15 am36 °FOvercast.10 mph72%30.08 "Hg10 mi
11:55 pm
Sat, Dec 9
36 °FOvercast.13 mph70%30.08 "Hg10 mi
11:15 pm36 °FOvercast.8 mph70%30.09 "Hg10 mi
10:55 pm36 °FOvercast.12 mph71%30.08 "Hg10 mi
10:15 pm37 °FOvercast.8 mph70%30.08 "Hg10 mi
9:55 pm37 °FOvercast.12 mph68%30.08 "Hg10 mi
9:15 pm37 °FOvercast.14 mph68%30.07 "Hg10 mi
8:55 pm38 °FOvercast.14 mph68%30.07 "Hg10 mi
8:35 pm38 °FOvercast.18 mph66%30.07 "Hg10 mi
8:15 pm38 °FOvercast.13 mph65%30.07 "Hg10 mi
7:55 pm38 °FOvercast.10 mph67%30.07 "Hg10 mi
7:35 pm39 °FMostly cloudy.12 mph65%30.07 "Hg10 mi
7:15 pm39 °FOvercast.18 mph65%30.06 "Hg10 mi
6:55 pm40 °FMostly cloudy.16 mph65%30.05 "Hg10 mi
5:35 pm42 °FOvercast.12 mph59%30.03 "Hg10 mi
4:55 pm44 °FMostly cloudy.16 mph58%30.01 "Hg10 mi
4:35 pm45 °FOvercast.14 mph60%30.00 "Hg10 mi
4:15 pm45 °FOvercast.8 mph59%29.98 "Hg10 mi
3:55 pm45 °FOvercast.16 mph59%29.97 "Hg10 mi
3:35 pm46 °FOvercast.14 mph59%29.96 "Hg10 mi
3:15 pm46 °FOvercast.16 mph59%29.95 "Hg10 mi
2:55 pm46 °FOvercast.15 mph60%29.93 "Hg10 mi
2:35 pm49 °FOvercast.13 mph57%29.92 "Hg10 mi
1:55 pm48 °FPartly sunny.13 mph58%29.92 "Hg10 mi
1:35 pm49 °FScattered clouds.15 mph59%29.92 "Hg10 mi
1:15 pm47 °FSunny.15 mph61%29.91 "Hg10 mi
12:55 pm48 °FSunny.13 mph60%29.91 "Hg10 mi
12:15 pm48 °FSunny.13 mph61%29.91 "Hg10 mi
11:55 am47 °FSunny.12 mph62%29.92 "Hg10 mi
11:35 am47 °FSunny.12 mph63%29.92 "Hg10 mi
11:15 am47 °FSunny.12 mph64%29.91 "Hg10 mi
10:55 am47 °FScattered clouds.14 mph69%29.92 "Hg10 mi
10:35 am47 °FOvercast.12 mph76%29.92 "Hg10 mi
10:15 am47 °FScattered clouds.9 mph80%29.92 "Hg10 mi
Weather by CustomWeather, © 2023

See weather overview